Date,TemperatureHighF,TemperatureAvgF,TemperatureLowF,DewpointHighF,DewpointAvgF,DewpointLowF,HumidityHigh,HumidityAvg,HumidityLow,PressureMaxIn,PressureMinIn,WindSpeedMaxMPH,WindSpeedAvgMPH,GustSpeedMaxMPH,PrecipitationSumIn
2013-11-1,61.5,55.7,49.5,56.1,49.1,45.3,99,80,57,29.85,29.49,29,8,45,0.10
2013-11-2,54.0,50.0,45.7,45.3,41.6,37.4,88,73,57,30.14,29.84,21,6,21,0.00
2013-11-3,53.8,46.4,39.4,43.2,39.7,36.1,94,78,61,30.51,30.32,12,2,12,0.00
2013-11-4,56.8,47.7,37.9,45.1,39.1,33.6,90,73,57,30.56,30.44,16,6,17,0.00
2013-11-5,61.3,54.4,48.7,46.4,44.3,41.5,87,69,55,30.54,30.34,12,4,13,0.01
2013-11-6,64.8,57.5,45.5,59.4,51.1,40.6,97,80,58,30.34,30.07,33,9,33,0.38
2013-11-7,47.7,43.0,39.0,44.1,34.6,27.9,97,74,48,30.37,30.12,18,5,20,0.06
2013-11-8,48.2,39.4,31.1,35.4,32.3,29.5,94,77,52,30.51,30.32,16,4,16,0.00
2013-11-9,60.4,49.3,38.5,42.3,35.4,29.5,81,60,44,30.38,30.14,33,9,33,0.00
2013-11-10,51.1,43.5,29.5,42.3,33.6,27.3,93,69,54,30.48,30.20,23,5,23,0.00
2013-11-11,50.4,40.4,28.0,44.2,35.0,26.8,97,82,54,30.44,30.22,22,4,22,0.12
2013-11-12,33.6,28.7,24.4,32.4,24.2,21.6,98,84,63,30.77,30.39,17,4,17,0.00
2013-11-13,38.8,29.6,21.0,23.7,21.2,17.8,95,73,45,30.79,30.55,18,5,18,0.01
2013-11-14,53.4,40.4,29.7,27.1,23.1,19.4,74,53,26,30.55,30.30,17,8,23,0.00
2013-11-15,51.6,45.3,37.8,43.7,30.6,23.2,88,57,43,30.32,30.23,20,6,20,0.00
2013-11-16,61.3,53.2,46.9,56.8,50.0,43.0,94,89,85,30.27,30.03,22,8,22,0.00
2013-11-17,64.8,60.1,52.0,62.4,56.4,41.5,96,88,62,30.04,29.60,38,15,38,0.67
2013-11-18,52.2,45.7,36.9,42.3,36.6,30.7,86,71,54,30.31,29.87,31,8,31,0.00
2013-11-19,40.5,34.6,28.9,31.1,28.9,26.8,92,80,65,30.50,30.31,13,3,13,0.00
2013-11-20,49.5,38.3,28.9,35.8,30.7,25.5,90,75,57,30.50,30.38,18,5,18,0.00
2013-11-21,56.7,48.8,40.3,50.4,41.1,32.4,93,75,61,30.47,30.32,17,4,17,0.04
2013-11-22,52.9,48.0,36.9,52.5,45.7,31.1,99,92,80,30.49,30.28,17,4,22,0.11
2013-11-23,36.9,30.0,20.7,31.5,23.3,10.2,95,77,56,30.70,30.47,25,5,26,0.00
2013-11-24,26.2,19.8,13.3,14.7,12.3,9.5,92,73,55,30.85,30.70,18,2,18,0.00
2013-11-25,37.6,28.5,15.8,29.1,19.1,13.3,93,69,45,30.71,30.35,24,5,24,0.00
2013-11-26,34.5,32.4,31.3,33.3,31.2,28.9,98,95,85,30.37,30.06,10,2,13,0.01
2013-11-27,32.4,27.0,23.0,29.8,20.8,16.3,90,77,63,30.43,30.05,29,7,29,0.00
2013-11-28,33.4,25.3,19.2,19.9,17.5,14.4,87,72,54,30.61,30.43,21,5,21,0.00
2013-11-29,38.5,26.9,15.1,26.1,21.1,13.3,95,79,59,30.80,30.61,11,2,11,0.00
2013-11-30,49.3,36.3,25.2,32.2,27.5,21.4,88,71,50,30.69,30.32,15,3,16,0.00